• In Romania
  • List of Countries
  • For 7 days
  • Water Temperature
  • Satellite Maps
  • Weather Map
  • Weather Widgets
  • user-avatar
    Login

    Hourly Weather Besedka

    Today, 21 August, Tuesday

    Time Temperature Precipitation Wind Pressure Humidity
    00:00 +18°C° 0 mm 2 mps 737 mmHg 59%
    01:00 +18°C° 0 mm 2 mps 737 mmHg 60%
    02:00 +17°C° 0 mm 2 mps 737 mmHg 61%
    03:00 +17°C° 0 mm 2 mps 737 mmHg 60%
    04:00 +17°C° 0 mm 2 mps 737 mmHg 60%
    05:00 +17°C° 0 mm 2 mps 737 mmHg 61%
    06:00 +17°C° 0 mm 3 mps 737 mmHg 61%
    07:00 +19°C° 0 mm 3 mps 737 mmHg 55%
    08:00 +21°C° 0 mm 3 mps 737 mmHg 49%
    09:00 +25°C° 0 mm 4 mps 737 mmHg 42%
    10:00 +26°C° 0 mm 4 mps 737 mmHg 39%
    11:00 +27°C° 0 mm 4 mps 737 mmHg 36%
    12:00 +28°C° 0 mm 5 mps 737 mmHg 33%
    13:00 +28°C° 0 mm 5 mps 736 mmHg 32%
    14:00 +28°C° 0 mm 5 mps 736 mmHg 31%
    15:00 +28°C° 0 mm 5 mps 736 mmHg 31%
    16:00 +28°C° 0 mm 4 mps 735 mmHg 34%
    17:00 +27°C° 0 mm 4 mps 735 mmHg 37%
    18:00 +26°C° 0 mm 3 mps 735 mmHg 40%
    19:00 +24°C° 0 mm 3 mps 735 mmHg 42%
    20:00 +22°C° 0 mm 3 mps 734 mmHg 43%
    21:00 +20°C° 0 mm 3 mps 734 mmHg 45%
    22:00 +20°C° 0 mm 3 mps 734 mmHg 44%
    23:00 +19°C° 0 mm 3 mps 734 mmHg 43%

    Tomorrow, 22 August, Wednesday

    Time Temperature Precipitation Wind Pressure Humidity
    00:00 +18°C° 0 mm 3 mps 733 mmHg 42%
    01:00 +18°C° 0 mm 3 mps 733 mmHg 41%
    02:00 +18°C° 0 mm 4 mps 733 mmHg 39%
    03:00 +18°C° 0 mm 4 mps 732 mmHg 38%
    04:00 +18°C° 0 mm 4 mps 732 mmHg 39%
    05:00 +18°C° 0 mm 4 mps 732 mmHg 40%
    06:00 +17°C° 0 mm 5 mps 732 mmHg 41%
    07:00 +19°C° 0.2 mm 5 mps 732 mmHg 42%
    08:00 +20°C° 0.2 mm 5 mps 732 mmHg 42%
    09:00 +21°C° 0.2 mm 6 mps 732 mmHg 43%
    10:00 +20°C° 0.9 mm 5 mps 732 mmHg 53%
    11:00 +19°C° 0.9 mm 5 mps 732 mmHg 63%
    12:00 +17°C° 0.9 mm 4 mps 732 mmHg 74%
    13:00 +18°C° 0.3 mm 4 mps 732 mmHg 69%
    14:00 +19°C° 0.3 mm 4 mps 732 mmHg 65%
    15:00 +21°C° 0.3 mm 4 mps 733 mmHg 61%
    16:00 +20°C° 0 mm 4 mps 733 mmHg 58%
    17:00 +20°C° 0 mm 4 mps 733 mmHg 55%
    18:00 +20°C° 0 mm 5 mps 734 mmHg 52%
    19:00 +18°C° 0 mm 4 mps 734 mmHg 55%
    20:00 +17°C° 0 mm 4 mps 735 mmHg 59%
    21:00 +14°C° 0 mm 4 mps 735 mmHg 62%
    22:00 +14°C° 0 mm 3 mps 735 mmHg 64%
    23:00 +13°C° 0 mm 3 mps 736 mmHg 66%

    Day after tomorrow, 23 August, Thursday

    Time Temperature Precipitation Wind Pressure Humidity
    00:00 +13°C° 0 mm 3 mps 736 mmHg 68%
    01:00 +12°C° 0 mm 3 mps 736 mmHg 70%
    02:00 +12°C° 0 mm 3 mps 737 mmHg 73%
    03:00 +11°C° 0 mm 3 mps 737 mmHg 75%
    04:00 +11°C° 0 mm 3 mps 737 mmHg 75%
    05:00 +11°C° 0 mm 3 mps 737 mmHg 75%
    06:00 +11°C° 0 mm 3 mps 738 mmHg 75%
    07:00 +13°C° 0 mm 3 mps 738 mmHg 67%
    08:00 +15°C° 0 mm 4 mps 739 mmHg 58%
    09:00 +17°C° 0 mm 5 mps 739 mmHg 49%
    10:00 +19°C° 0 mm 5 mps 739 mmHg 46%
    11:00 +20°C° 0 mm 5 mps 739 mmHg 43%
    12:00 +20°C° 0 mm 5 mps 739 mmHg 40%
    13:00 +21°C° 0 mm 5 mps 739 mmHg 40%
    14:00 +21°C° 0 mm 4 mps 739 mmHg 40%
    15:00 +21°C° 0 mm 4 mps 740 mmHg 40%
    16:00 +20°C° 0 mm 4 mps 740 mmHg 43%
    17:00 +20°C° 0 mm 4 mps 740 mmHg 47%
    18:00 +19°C° 0 mm 3 mps 740 mmHg 50%
    19:00 +17°C° 0 mm 3 mps 740 mmHg 54%
    20:00 +16°C° 0 mm 3 mps 740 mmHg 58%
    21:00 +15°C° 0 mm 2 mps 740 mmHg 62%
    22:00 +14°C° 0 mm 2 mps 740 mmHg 63%
    23:00 +13°C° 0 mm 2 mps 741 mmHg 65%

    24 August, Friday

    Time Temperature Precipitation Wind Pressure Humidity
    00:00 +13°C° 0 mm 2 mps 741 mmHg 67%
    01:00 +12°C° 0 mm 1 mps 741 mmHg 68%
    02:00 +12°C° 0 mm 1 mps 741 mmHg 69%
    03:00 +12°C° 0 mm 1 mps 741 mmHg 69%
    04:00 +12°C° 0 mm 1 mps 741 mmHg 69%
    05:00 +12°C° 0 mm 1 mps 741 mmHg 69%
    06:00 +12°C° 0 mm 1 mps 741 mmHg 68%
    07:00 +14°C° 0 mm 1 mps 741 mmHg 61%
    08:00 +16°C° 0 mm 1 mps 741 mmHg 54%
    09:00 +19°C° 0 mm 1 mps 742 mmHg 47%
    10:00 +20°C° 0 mm 1 mps 741 mmHg 43%
    11:00 +21°C° 0 mm 1 mps 741 mmHg 40%
    12:00 +23°C° 0 mm 1 mps 741 mmHg 37%
    13:00 +23°C° 0 mm 2 mps 741 mmHg 36%
    14:00 +23°C° 0 mm 2 mps 741 mmHg 35%
    15:00 +24°C° 0 mm 2 mps 740 mmHg 34%
    16:00 +23°C° 0 mm 2 mps 740 mmHg 37%
    17:00 +23°C° 0 mm 2 mps 740 mmHg 41%
    18:00 +21°C° 0 mm 2 mps 740 mmHg 45%
    19:00 +20°C° 0 mm 1 mps 740 mmHg 48%
    20:00 +19°C° 0 mm 1 mps 740 mmHg 51%
    21:00 +18°C° 0 mm 1 mps 740 mmHg 55%
    22:00 +16°C° 0 mm 1 mps 740 mmHg 57%
    23:00 +16°C° 0 mm 1 mps 740 mmHg 59%

    25 August, Saturday

    Time Temperature Precipitation Wind Pressure Humidity
    00:00 +15°C° 0 mm 1 mps 740 mmHg 61%
    01:00 +15°C° 0 mm 1 mps 740 mmHg 63%
    02:00 +14°C° 0 mm 1 mps 740 mmHg 65%
    03:00 +14°C° 0 mm 1 mps 740 mmHg 67%
    04:00 +14°C° 0 mm 1 mps 740 mmHg 68%
    05:00 +14°C° 0 mm 1 mps 740 mmHg 68%
    06:00 +14°C° 0 mm 1 mps 740 mmHg 69%
    07:00 +16°C° 0 mm 2 mps 740 mmHg 63%
    08:00 +18°C° 0 mm 2 mps 740 mmHg 56%
    09:00 +20°C° 0 mm 2 mps 740 mmHg 50%
    10:00 +21°C° 0 mm 2 mps 740 mmHg 46%
    11:00 +23°C° 0 mm 2 mps 740 mmHg 42%
    12:00 +24°C° 0 mm 2 mps 740 mmHg 38%
    13:00 +25°C° 0 mm 2 mps 740 mmHg 36%
    14:00 +25°C° 0 mm 2 mps 740 mmHg 35%
    15:00 +26°C° 0 mm 2 mps 740 mmHg 34%
    16:00 +25°C° 0 mm 2 mps 739 mmHg 38%
    17:00 +24°C° 0 mm 2 mps 739 mmHg 41%
    18:00 +24°C° 0 mm 2 mps 739 mmHg 45%
    19:00 +21°C° 0 mm 2 mps 739 mmHg 48%
    20:00 +20°C° 0 mm 2 mps 739 mmHg 52%
    21:00 +19°C° 0 mm 2 mps 739 mmHg 56%
    22:00 +18°C° 0 mm 2 mps 739 mmHg 60%
    23:00 +18°C° 0 mm 2 mps 740 mmHg 63%

    26 August, Sunday

    Time Temperature Precipitation Wind Pressure Humidity
    00:00 +17°C° 0 mm 2 mps 740 mmHg 67%
    01:00 +17°C° 0 mm 2 mps 740 mmHg 70%
    02:00 +16°C° 0 mm 2 mps 740 mmHg 73%
    03:00 +16°C° 0 mm 2 mps 740 mmHg 76%
    04:00 +16°C° 0 mm 2 mps 740 mmHg 78%
    05:00 +16°C° 0 mm 2 mps 740 mmHg 79%
    06:00 +16°C° 0 mm 2 mps 741 mmHg 80%
    07:00 +18°C° 0 mm 2 mps 741 mmHg 72%
    08:00 +20°C° 0 mm 3 mps 741 mmHg 65%
    09:00 +21°C° 0 mm 3 mps 741 mmHg 58%
    10:00 +22°C° 0 mm 3 mps 741 mmHg 53%
    11:00 +24°C° 0 mm 3 mps 741 mmHg 49%
    12:00 +25°C° 0 mm 3 mps 741 mmHg 44%
    13:00 +26°C° 0 mm 3 mps 741 mmHg 42%
    14:00 +26°C° 0 mm 3 mps 740 mmHg 40%
    15:00 +27°C° 0 mm 3 mps 740 mmHg 38%
    16:00 +26°C° 0 mm 3 mps 740 mmHg 40%
    17:00 +25°C° 0 mm 3 mps 740 mmHg 42%
    18:00 +24°C° 0 mm 3 mps 740 mmHg 45%
    19:00 +22°C° 0 mm 3 mps 740 mmHg 46%
    20:00 +20°C° 0 mm 3 mps 740 mmHg 48%
    21:00 +19°C° 0 mm 3 mps 740 mmHg 50%
    22:00 +18°C° 0 mm 3 mps 740 mmHg 52%
    23:00 +18°C° 0 mm 3 mps 740 mmHg 53%
    Show more